SCP
1 0 1 0 0 0 0 0 0 0 0 0 0 0 0 0 0 0 0 0 0 0 0 0 0 0 0 0 0 0 0 0 0 0 0 0 0 0 0 0 0 0 0
1 1 1 1 0 0 1 0 0 0 0 0 0 0 0 0 0 0 0 0 0 0 0 0 0 0 0 0 0 0 0 0 0 0 0 0 0 0 0 0 0 0 0
2 1 0 0 1 1 1 0 0 0 0 0 0 0 0 0 0 0 0 0 0 0 0 0 0 0 0 0 0 0 0 0 0 0 0 0 0 0 0 0 0 0 0
0 1 1 0 0 0 0 0 0 0 0 0 0 0 0 0 0 0 0 0 0 0 0 0 0 0 0 0 0 0 0 0 0 0 0 0 0 0 0 0 0 0 0
1 0 0 0 0 0 0 0 0 0 0 0 0 0 0 0 0 0 0 0 0 0 0 0 0 0 0 0 0 0 0 0 0 0 0 0 0 0 0 0 0 0 0
1 0 1 0 0 0 0 0 0 0 0 0 0 0 0 0 0 0 0 0 0 0 0 0 0 0 0 0 0 0 0 0 0 0 0 0 0 0 0 0 0 0 0
0 1 1 0 0 0 0 0 0 0 0 0 0 0 0 0 0 0 0 0 0 0 0 0 0 0 0 0 0 0 0 0 0 0 0 0 0 0 0 0 0 0 0
0 1 0 0 0 0 0 0 0 0 0 0 0 0 0 0 0 0 0 0 0 0 0 0 0 0 0 0 0 0 0 0 0 0 0 0 0 0 0 0 0 0 0
0 0 0 0 0 0 0 0 0 0 0 0 0 0 0 0 0 0 0 0 0 0 0 0 0 0 0 0 0 0 0 0 0 0 0 0 0 0 0 0 0 0 0
0 0 0 0 0 0 0 0 0 0 0 0 0 0 0 0 0 0 0 0 0 0 0 0 0 0 0 0 0 0 0 0 0 0 0 0 0 0 0 0 0 0 0
0 0 0 0 0 0 0 0 0 0 0 0 0 0 0 0 0 0 0 0 0 0 0 0 0 0 0 0 0 0 0 0 0 0 0 0 0 0 0 0 0 0 0
0 0 0 0 0 0 0 0 0 0 0 0 0 0 0 0 0 0 0 0 0 0 0 0 0 0 0 0 0 0 0 0 0 0 0 0 0 0 0 0 0 0 0
0 0 0 0 0 0 0 0 0 0 0 0 0 0 0 0 0 0 0 0 0 0 0 0 0 0 0 0 0 0 0 0 0 0 0 0 0 0 0 0 0 0 0
0 0 0 0 0 0 0 0 0 0 0 0 0 0 0 0 0 0 0 0 0 0 0 0 0 0 0 0 0 0 0 0 0 0 0 0 0 0 0 0 0 0 0
0 0 0 0 0 0 0 0 0 0 0 0 0 0 0 0 0 0 0 0 0 0 0 0 0 0 0 0 0 0 0 0 0 0 0 0 0 0 0 0 0 0 0
0 0 0 0 0 0 0 0 0 0 0 0 0 0 0 0 0 0 0 0 0 0 0 0 0 0 0 0 0 0 0 0 0 0 0 0 0 0 0 0 0 0 0
0 0 0 0 0 0 0 0 0 0 0 0 0 0 0 0 -0 -0 -0 -0 -0 0 0 -0 0 0 0 0 0 0 0 0 0 0 0 0 0 0 0 0 0 0 0
0 0 0 0 0 0 0 -0 -0 -0 -0 -0 0 0 -0 -0 -0 -0 -0 0 0 0 0 0 0 0 0 0 0 0 0 0 0 0 0 0 0 0 0 0 0 0 0
0 0 0 0 0 -0 -0 -0 -0 -0 -0 -0 -0 0 0 -0 -0 0 0 0 0 0 0 0 0 0 0 0 0 0 0 0 0 0 0 0 0 0 0 0 0 0 0
0 0 -0 -0 -0 -0 -0 -0 -0 -0 -0 -0 -0 0 0 0 0 0 0 0 0 0 0 0 0 0 0 0 0 0 0 0 0 0 0 0 0 0 0 0 0 0 0
0 -0 -0 -0 -0 -0 -0 -0 -0 -0 -0 -0 0 0 0 0 0 0 0 0 0 0 0 0 0 0 0 0 0 0 0 0 0 0 0 0 0 0 0 0 0 0 0
-0 -0 -0 -0 -0 -0 -0 -0 -0 -0 -0 0 0 0 0 0 -0 0 0 0 0 0 0 0 0 0 0 0 0 0 0 0 0 0 0 0 0 0 0 0 0 0 0
-0 -0 -0 0 0 0 -0 0 -0 -0 -0 0 0 -0 0 0 0 0 0 0 0 0 0 0 0 0 0 0 0 0 0 0 0 0 0 0 0 0 0 0 0 0 0
0 -0 -0 -0 -0 -0 -0 0 0 0 -0 0 0 -0 0 0 0 0 0 0 0 0 0 0 0 0 0 0 0 0 0 0 0 0 0 0 0 0 0 0 0 0 0
0 0 -0 -0 -0 -0 -0 -0 -0 -0 -0 0 0 -0 0 0 0 0 0 0 0 0 0 0 0 0 0 0 0 0 0 0 0 0 0 0 0 0 0 0 0 0 0
0 0 0 0 0 0 0 0 0 0 0 0 0 0 0 0 0 0 0 0 0 0 0 0 0 0 0 0 0 0 0 0 0 0 0 0 0 0 0 0 0 0 0
Wind_Speed_500mb
72 70 68 69 74 73 72 76 68 61 66 59 59 53 54 54 50 44 35 30 26 26 33 31 29 31 33 34 30 24 26 19 9 20 29 23 21 19 10 2 9 11 9
56 56 67 74 77 76 75 78 68 62 59 63 54 47 49 51 48 37 32 31 28 26 29 30 29 34 32 26 20 17 21 13 13 23 32 25 22 18 9 3 3 1 7
70 66 66 70 73 74 71 77 66 55 54 49 54 50 49 48 36 33 28 23 24 25 27 28 26 30 23 18 17 20 24 14 11 15 24 18 12 25 8 15 19 16 13
71 85 87 82 78 69 60 66 59 55 53 54 52 53 53 48 36 33 23 22 22 21 20 21 22 22 20 16 17 22 23 20 18 15 16 14 30 12 23 28 22 17 17
92 107 99 95 81 74 62 61 58 49 55 48 50 45 44 37 34 28 17 15 15 15 16 17 17 18 16 17 21 23 24 20 17 18 22 22 19 26 40 16 17 16 13
114 115 94 86 88 72 62 48 50 47 47 39 39 36 35 35 38 24 20 15 11 13 11 13 14 15 13 13 16 22 22 19 20 19 19 18 17 18 19 13 10 17 16
107 102 89 91 74 69 70 56 47 46 43 37 37 37 33 35 28 23 17 10 7 6 11 12 13 12 10 13 15 18 20 24 22 18 17 15 12 10 9 7 10 21 27
88 78 90 91 88 78 66 57 49 42 40 40 40 37 37 30 23 26 26 28 13 6 2 10 10 13 15 14 13 16 21 23 23 19 16 15 15 10 10 9 8 13 14
50 84 98 104 80 78 71 59 50 42 38 35 34 36 33 31 37 29 29 28 21 13 9 11 13 14 17 12 9 12 18 20 25 20 11 13 14 12 10 6 3 4 3
21 60 81 74 78 65 58 50 38 41 41 37 41 37 37 36 35 33 26 23 18 10 8 13 14 18 21 13 13 14 17 12 18 16 11 11 9 6 4 2 2 5 11
40 14 54 78 71 60 47 46 44 45 38 45 39 39 40 39 35 32 27 22 16 9 13 14 14 14 19 19 10 11 13 13 12 12 11 10 10 4 5 5 9 9 15
23 25 49 59 59 60 62 62 57 56 50 48 33 25 25 28 30 31 26 21 19 20 20 17 15 14 18 22 16 9 10 12 11 9 6 5 4 2 11 13 16 21 20
29 27 47 47 52 55 61 61 56 54 54 39 30 25 18 26 28 28 30 30 28 25 22 23 19 15 17 20 20 15 12 11 1 4 6 9 9 11 14 24 20 29 27
56 53 45 55 56 56 58 61 60 54 48 37 26 15 14 17 21 25 28 27 24 24 23 21 18 15 15 13 12 9 5 4 4 12 14 15 13 17 30 31 32 43 42
32 46 53 44 46 48 45 38 37 31 25 18 9 9 9 10 12 14 18 21 20 18 15 16 16 16 15 8 7 14 11 8 13 14 17 17 16 23 28 35 33 46 56
31 24 33 37 37 38 39 28 12 5 5 4 5 13 15 12 9 17 18 17 20 23 25 22 23 27 23 26 21 24 17 22 20 21 23 24 25 26 28 33 44 48 55
38 38 23 30 31 26 21 15 8 6 10 14 16 15 14 12 8 6 4 7 11 14 15 23 20 17 10 4 8 15 24 25 26 26 26 18 19 24 31 40 46 53 51
27 31 23 25 19 14 9 9 13 22 17 15 6 7 12 2 6 13 2 1 1 4 8 10 10 13 13 13 17 20 26 32 32 33 25 26 30 34 38 43 49 51 54
17 8 6 11 19 24 28 24 15 15 11 12 11 8 5 7 7 4 3 4 7 7 7 9 10 16 17 16 20 24 33 41 43 40 36 36 42 49 46 45 48 52 57
11 12 24 26 18 19 21 14 17 18 13 15 10 12 10 4 6 2 7 13 17 17 15 13 15 20 26 27 30 37 44 49 49 46 42 43 51 40 43 46 49 55 62
9 15 22 12 20 17 11 13 13 14 15 12 15 11 14 9 9 10 13 16 22 23 26 27 29 34 37 40 42 45 50 53 53 49 53 52 49 43 43 44 53 63 63
21 12 14 16 23 15 16 12 11 9 14 18 14 14 14 14 13 17 20 26 27 27 28 28 33 35 35 36 43 43 44 53 51 52 46 37 36 42 50 55 57 48 41
24 22 17 15 14 11 14 7 8 14 20 18 15 18 19 15 14 22 26 26 28 32 33 33 34 35 36 36 38 37 35 39 41 46 30 32 36 42 48 48 27 36 37
25 21 19 18 15 20 23 27 19 23 18 23 22 22 25 21 23 25 29 34 34 34 34 35 34 30 33 32 29 29 28 27 29 30 30 34 42 52 39 26 20 23 36
25 23 32 27 23 25 17 19 35 26 26 22 21 22 22 21 24 30 33 36 37 34 31 27 29 28 26 18 16 17 18 20 26 31 38 39 33 12 17 18 34 47 47
24 28 30 25 24 24 15 11 12 15 17 20 19 22 27 30 30 32 31 30 28 27 24 28 23 14 10 14 15 16 16 18 23 25 13 15 11 19 23 27 38 38 40
Wind_Direction_500mb
166 179 187 192 192 192 189 192 194 192 195 189 190 193 201 210 216 224 228 235 225 213 234 244 251 261 267 276 277 266 253 252 256 173 157 151 186 214 213 94 302 280 331
175 179 189 194 201 201 196 197 199 198 195 193 194 198 205 212 220 224 237 233 228 225 235 246 256 261 266 270 258 224 222 216 192 171 167 156 149 155 178 241 128 194 360
166 183 192 200 202 204 197 196 200 193 188 188 191 187 200 211 219 230 237 234 228 228 234 246 250 259 258 248 222 200 204 190 159 168 183 176 186 172 136 93 85 61 37
204 198 196 199 201 203 194 195 197 199 197 194 192 200 206 208 217 234 229 242 242 235 231 229 232 235 243 234 206 193 201 198 176 151 132 132 163 164 135 108 107 75 43
204 195 197 202 195 194 200 197 203 196 185 183 197 199 196 207 223 223 232 247 226 214 215 212 217 215 218 209 196 187 192 191 190 176 154 148 147 158 167 108 133 123 77
193 198 196 180 184 191 194 188 185 183 190 181 179 192 209 202 196 207 238 225 202 212 205 202 207 211 201 182 179 182 185 177 176 174 157 162 160 159 169 150 131 135 92
191 183 176 172 169 177 179 174 172 173 185 187 170 179 189 185 201 230 192 168 191 187 193 185 179 190 172 162 163 158 156 164 162 162 161 155 159 156 159 162 112 138 112
189 166 161 160 164 165 163 166 171 159 169 176 171 166 167 172 184 151 174 179 210 217 258 213 184 167 152 155 153 146 139 142 155 155 153 141 144 131 113 105 103 140 173
141 154 146 148 152 159 163 167 166 164 164 170 170 172 168 155 157 159 176 183 187 217 265 192 174 152 132 120 119 139 140 141 141 160 149 137 126 127 115 96 79 74 184
55 145 137 142 153 151 152 157 169 161 157 152 156 156 154 159 173 171 170 176 194 221 196 157 148 141 144 142 111 123 136 144 134 154 146 134 126 149 110 149 178 292 291
13 335 122 136 139 143 144 143 153 150 147 157 159 160 161 160 166 163 159 162 174 183 151 135 135 135 147 138 120 119 125 130 120 117 103 101 82 120 74 18 341 318 313
95 89 101 123 133 130 141 144 146 150 156 160 155 154 159 170 177 177 173 178 183 161 148 135 136 144 146 150 139 138 113 98 90 92 94 60 65 28 20 351 360 342 322
95 99 115 124 133 136 145 150 156 150 156 160 163 163 162 168 171 173 176 172 169 163 166 169 169 158 154 150 149 156 154 148 329 321 338 334 325 319 332 341 333 345 328
142 131 100 113 120 131 138 146 147 153 159 164 168 170 160 156 162 174 180 181 182 185 184 189 187 189 185 165 163 134 95 259 216 299 332 348 340 333 333 327 328 331 331
103 133 139 140 136 136 137 135 136 148 153 163 187 203 211 172 164 184 201 196 191 199 197 198 199 177 175 176 217 228 239 299 299 299 298 295 296 298 304 308 317 322 323
122 124 137 154 147 146 141 138 138 191 218 224 191 146 127 148 213 198 211 214 211 200 183 198 205 207 219 220 211 245 298 318 305 299 305 295 277 277 288 298 311 309 310
157 165 180 158 153 165 171 170 191 152 131 131 139 134 151 179 150 163 121 200 196 196 213 219 238 243 229 257 250 257 277 285 295 301 307 303 302 292 292 295 297 299 301
146 155 153 142 150 159 191 154 134 131 127 138 129 140 171 202 252 232 190 349 163 206 223 230 248 253 246 254 264 267 276 284 297 307 298 301 301 298 290 285 286 287 288
117 108 180 202 165 150 147 140 173 170 157 150 168 199 175 105 140 126 98 277 285 295 296 299 287 273 266 266 265 276 278 276 285 292 290 290 295 295 292 282 284 281 284
217 146 149 139 167 153 156 163 180 191 204 213 219 229 244 225 262 288 298 310 290 305 309 284 273 273 279 280 278 275 274 275 278 281 279 285 295 286 283 284 288 289 301
188 179 179 181 167 181 184 218 203 227 218 213 210 217 218 231 222 255 265 272 272 273 274 274 280 275 276 277 276 275 276 276 270 266 268 281 294 280 287 287 291 299 307
162 166 173 176 178 169 185 202 241 192 176 191 209 205 222 221 235 247 253 251 259 267 274 277 276 277 278 277 282 282 281 293 269 266 273 289 279 277 281 290 300 302 298
169 182 188 187 191 200 199 236 205 179 189 200 229 219 222 233 232 257 272 275 277 276 281 281 283 288 288 286 287 290 288 288 275 278 273 270 277 284 291 299 293 298 304
191 191 203 217 209 212 214 219 214 207 217 208 210 224 237 251 264 267 276 278 282 287 281 277 282 290 295 295 291 291 285 288 273 273 280 286 293 297 298 307 313 315 317
207 201 203 211 213 219 230 221 208 208 210 223 235 240 251 269 285 289 285 290 288 282 274 271 287 290 296 305 308 303 292 293 281 275 283 296 300 282 309 313 311 311 311
211 211 212 221 218 218 230 203 188 208 213 220 242 263 274 278 286 281 285 287 287 275 270 286 281 292 317 314 312 305 299 293 280 280 286 328 308 307 306 305 312 310 310
Wind_Speed_850mb
72 70 68 69 74 73 72 76 68 61 66 59 59 53 54 54 50 44 35 30 26 26 33 31 29 31 33 34 30 24 26 19 9 20 29 23 21 19 10 2 9 11 9
56 56 67 74 77 76 75 78 68 62 59 63 54 47 49 51 48 37 32 31 28 26 29 30 29 34 32 26 20 17 21 13 13 23 32 25 22 18 9 3 3 1 7
70 66 66 70 73 74 71 77 66 55 54 49 54 50 49 48 36 33 28 23 24 25 27 28 26 30 23 18 17 20 24 14 11 15 24 18 12 25 8 15 19 16 13
71 85 87 82 78 69 60 66 59 55 53 54 52 53 53 48 36 33 23 22 22 21 20 21 22 22 20 16 17 22 23 20 18 15 16 14 30 12 23 28 22 17 17
92 107 99 95 81 74 62 61 58 49 55 48 50 45 44 37 34 28 17 15 15 15 16 17 17 18 16 17 21 23 24 20 17 18 22 22 19 26 40 16 17 16 13
114 115 94 86 88 72 62 48 50 47 47 39 39 36 35 35 38 24 20 15 11 13 11 13 14 15 13 13 16 22 22 19 20 19 19 18 17 18 19 13 10 17 16
107 102 89 91 74 69 70 56 47 46 43 37 37 37 33 35 28 23 17 10 7 6 11 12 13 12 10 13 15 18 20 24 22 18 17 15 12 10 9 7 10 21 27
88 78 90 91 88 78 66 57 49 42 40 40 40 37 37 30 23 26 26 28 13 6 2 10 10 13 15 14 13 16 21 23 23 19 16 15 15 10 10 9 8 13 14
50 84 98 104 80 78 71 59 50 42 38 35 34 36 33 31 37 29 29 28 21 13 9 11 13 14 17 12 9 12 18 20 25 20 11 13 14 12 10 6 3 4 3
21 60 81 74 78 65 58 50 38 41 41 37 41 37 37 36 35 33 26 23 18 10 8 13 14 18 21 13 13 14 17 12 18 16 11 11 9 6 4 2 2 5 11
40 14 54 78 71 60 47 46 44 45 38 45 39 39 40 39 35 32 27 22 16 9 13 14 14 14 19 19 10 11 13 13 12 12 11 10 10 4 5 5 9 9 15
23 25 49 59 59 60 62 62 57 56 50 48 33 25 25 28 30 31 26 21 19 20 20 17 15 14 18 22 16 9 10 12 11 9 6 5 4 2 11 13 16 21 20
29 27 47 47 52 55 61 61 56 54 54 39 30 25 18 26 28 28 30 30 28 25 22 23 19 15 17 20 20 15 12 11 1 4 6 9 9 11 14 24 20 29 27
56 53 45 55 56 56 58 61 60 54 48 37 26 15 14 17 21 25 28 27 24 24 23 21 18 15 15 13 12 9 5 4 4 12 14 15 13 17 30 31 32 43 42
32 46 53 44 46 48 45 38 37 31 25 18 9 9 9 10 12 14 18 21 20 18 15 16 16 16 15 8 7 14 11 8 13 14 17 17 16 23 28 35 33 46 56
31 24 33 37 37 38 39 28 12 5 5 4 5 13 15 12 9 17 18 17 20 23 25 22 23 27 23 26 21 24 17 22 20 21 23 24 25 26 28 33 44 48 55
38 38 23 30 31 26 21 15 8 6 10 14 16 15 14 12 8 6 4 7 11 14 15 23 20 17 10 4 8 15 24 25 26 26 26 18 19 24 31 40 46 53 51
27 31 23 25 19 14 9 9 13 22 17 15 6 7 12 2 6 13 2 1 1 4 8 10 10 13 13 13 17 20 26 32 32 33 25 26 30 34 38 43 49 51 54
17 8 6 11 19 24 28 24 15 15 11 12 11 8 5 7 7 4 3 4 7 7 7 9 10 16 17 16 20 24 33 41 43 40 36 36 42 49 46 45 48 52 57
11 12 24 26 18 19 21 14 17 18 13 15 10 12 10 4 6 2 7 13 17 17 15 13 15 20 26 27 30 37 44 49 49 46 42 43 51 40 43 46 49 55 62
9 15 22 12 20 17 11 13 13 14 15 12 15 11 14 9 9 10 13 16 22 23 26 27 29 34 37 40 42 45 50 53 53 49 53 52 49 43 43 44 53 63 63
21 12 14 16 23 15 16 12 11 9 14 18 14 14 14 14 13 17 20 26 27 27 28 28 33 35 35 36 43 43 44 53 51 52 46 37 36 42 50 55 57 48 41
24 22 17 15 14 11 14 7 8 14 20 18 15 18 19 15 14 22 26 26 28 32 33 33 34 35 36 36 38 37 35 39 41 46 30 32 36 42 48 48 27 36 37
25 21 19 18 15 20 23 27 19 23 18 23 22 22 25 21 23 25 29 34 34 34 34 35 34 30 33 32 29 29 28 27 29 30 30 34 42 52 39 26 20 23 36
25 23 32 27 23 25 17 19 35 26 26 22 21 22 22 21 24 30 33 36 37 34 31 27 29 28 26 18 16 17 18 20 26 31 38 39 33 12 17 18 34 47 47
24 28 30 25 24 24 15 11 12 15 17 20 19 22 27 30 30 32 31 30 28 27 24 28 23 14 10 14 15 16 16 18 23 25 13 15 11 19 23 27 38 38 40
Wind_Direction_850mb
166 179 187 192 192 192 189 192 194 192 195 189 190 193 201 210 216 224 228 235 225 213 234 244 251 261 267 276 277 266 253 252 256 173 157 151 186 214 213 94 302 280 331
175 179 189 194 201 201 196 197 199 198 195 193 194 198 205 212 220 224 237 233 228 225 235 246 256 261 266 270 258 224 222 216 192 171 167 156 149 155 178 241 128 194 360
166 183 192 200 202 204 197 196 200 193 188 188 191 187 200 211 219 230 237 234 228 228 234 246 250 259 258 248 222 200 204 190 159 168 183 176 186 172 136 93 85 61 37
204 198 196 199 201 203 194 195 197 199 197 194 192 200 206 208 217 234 229 242 242 235 231 229 232 235 243 234 206 193 201 198 176 151 132 132 163 164 135 108 107 75 43
204 195 197 202 195 194 200 197 203 196 185 183 197 199 196 207 223 223 232 247 226 214 215 212 217 215 218 209 196 187 192 191 190 176 154 148 147 158 167 108 133 123 77
193 198 196 180 184 191 194 188 185 183 190 181 179 192 209 202 196 207 238 225 202 212 205 202 207 211 201 182 179 182 185 177 176 174 157 162 160 159 169 150 131 135 92
191 183 176 172 169 177 179 174 172 173 185 187 170 179 189 185 201 230 192 168 191 187 193 185 179 190 172 162 163 158 156 164 162 162 161 155 159 156 159 162 112 138 112
189 166 161 160 164 165 163 166 171 159 169 176 171 166 167 172 184 151 174 179 210 217 258 213 184 167 152 155 153 146 139 142 155 155 153 141 144 131 113 105 103 140 173
141 154 146 148 152 159 163 167 166 164 164 170 170 172 168 155 157 159 176 183 187 217 265 192 174 152 132 120 119 139 140 141 141 160 149 137 126 127 115 96 79 74 184
55 145 137 142 153 151 152 157 169 161 157 152 156 156 154 159 173 171 170 176 194 221 196 157 148 141 144 142 111 123 136 144 134 154 146 134 126 149 110 149 178 292 291
13 335 122 136 139 143 144 143 153 150 147 157 159 160 161 160 166 163 159 162 174 183 151 135 135 135 147 138 120 119 125 130 120 117 103 101 82 120 74 18 341 318 313
95 89 101 123 133 130 141 144 146 150 156 160 155 154 159 170 177 177 173 178 183 161 148 135 136 144 146 150 139 138 113 98 90 92 94 60 65 28 20 351 360 342 322
95 99 115 124 133 136 145 150 156 150 156 160 163 163 162 168 171 173 176 172 169 163 166 169 169 158 154 150 149 156 154 148 329 321 338 334 325 319 332 341 333 345 328
142 131 100 113 120 131 138 146 147 153 159 164 168 170 160 156 162 174 180 181 182 185 184 189 187 189 185 165 163 134 95 259 216 299 332 348 340 333 333 327 328 331 331
103 133 139 140 136 136 137 135 136 148 153 163 187 203 211 172 164 184 201 196 191 199 197 198 199 177 175 176 217 228 239 299 299 299 298 295 296 298 304 308 317 322 323
122 124 137 154 147 146 141 138 138 191 218 224 191 146 127 148 213 198 211 214 211 200 183 198 205 207 219 220 211 245 298 318 305 299 305 295 277 277 288 298 311 309 310
157 165 180 158 153 165 171 170 191 152 131 131 139 134 151 179 150 163 121 200 196 196 213 219 238 243 229 257 250 257 277 285 295 301 307 303 302 292 292 295 297 299 301
146 155 153 142 150 159 191 154 134 131 127 138 129 140 171 202 252 232 190 349 163 206 223 230 248 253 246 254 264 267 276 284 297 307 298 301 301 298 290 285 286 287 288
117 108 180 202 165 150 147 140 173 170 157 150 168 199 175 105 140 126 98 277 285 295 296 299 287 273 266 266 265 276 278 276 285 292 290 290 295 295 292 282 284 281 284
217 146 149 139 167 153 156 163 180 191 204 213 219 229 244 225 262 288 298 310 290 305 309 284 273 273 279 280 278 275 274 275 278 281 279 285 295 286 283 284 288 289 301
188 179 179 181 167 181 184 218 203 227 218 213 210 217 218 231 222 255 265 272 272 273 274 274 280 275 276 277 276 275 276 276 270 266 268 281 294 280 287 287 291 299 307
162 166 173 176 178 169 185 202 241 192 176 191 209 205 222 221 235 247 253 251 259 267 274 277 276 277 278 277 282 282 281 293 269 266 273 289 279 277 281 290 300 302 298
169 182 188 187 191 200 199 236 205 179 189 200 229 219 222 233 232 257 272 275 277 276 281 281 283 288 288 286 287 290 288 288 275 278 273 270 277 284 291 299 293 298 304
191 191 203 217 209 212 214 219 214 207 217 208 210 224 237 251 264 267 276 278 282 287 281 277 282 290 295 295 291 291 285 288 273 273 280 286 293 297 298 307 313 315 317
207 201 203 211 213 219 230 221 208 208 210 223 235 240 251 269 285 289 285 290 288 282 274 271 287 290 296 305 308 303 292 293 281 275 283 296 300 282 309 313 311 311 311
211 211 212 221 218 218 230 203 188 208 213 220 242 263 274 278 286 281 285 287 287 275 270 286 281 292 317 314 312 305 299 293 280 280 286 328 308 307 306 305 312 310 310